"Time","Temp","Dewpoint","Humidity","Pressure","Direction","Speed","Gust","Precip","PrecipRate"
"00:04:57","54.6","37","51.5","29.91","197","3.2","6","0.00","0.00"
"00:09:58","54.5","37.2","52","29.91","210","1.5","4","0.00","0.00"
"00:14:59","54.4","37.1","52","29.91","186","1.7","4","0.00","0.00"
"00:19:57","54.4","37.1","52.2","29.91","176","1.8","5","0.00","0.00"
"00:24:59","54.2","37.2","52.5","29.91","193","2.8","6","0.00","0.00"
"00:29:58","54.1","37.2","53","29.91","193","1.6","4.6","0.00","0.00"
"00:34:57","53.9","37.1","53","29.91","195","2","6","0.00","0.00"
"00:39:57","53.9","37.3","53.4","29.91","190","1.5","4.6","0.00","0.00"
"00:44:56","53.8","37.1","53.1","29.91","185","1.7","4","0.00","0.00"
"00:49:59","53.7","37.2","53.5","29.90","230","0.8","5","0.00","0.00"
"00:54:57","53.6","37.3","53.9","29.90","237","0","1.2","0.00","0.00"
"00:59:59","53.5","37.1","53.8","29.91","194","0.9","3.5","0.00","0.00"
"01:04:57","53.4","37.7","55.1","29.91","194","0.5","2.3","0.00","0.00"
"01:09:57","53.2","37.4","55","29.91","194","0.1","2.3","0.00","0.00"
"01:14:58","52.9","38.1","57.1","29.91","194","0","0","0.00","0.00"
"01:19:57","52.4","37.9","57.8","29.90","194","0","0","0.00","0.00"
"01:24:56","52.1","38","58.7","29.90","194","0","0","0.00","0.00"
"01:29:59","51.9","37.9","58.8","29.91","194","0","0","0.00","0.00"
"01:34:59","51.6","38.4","60.6","29.91","194","0","0","0.00","0.00"
"01:39:59","51.1","38.5","61.8","29.91","194","0","0","0.00","0.00"
"01:44:59","50.6","38.6","63.2","29.91","194","0","0","0.00","0.00"
"01:49:59","50.3","38.3","63.4","29.91","194","0","0","0.00","0.00"
"01:54:58","50","38.2","63.7","29.91","194","0","0","0.00","0.00"
"01:59:57","49.7","38.8","66.1","29.91","194","0","0","0.00","0.00"
"02:04:58","49.3","38.9","67.3","29.91","194","0","0","0.00","0.00"
"02:09:59","49","38.9","68","29.91","194","0","0","0.00","0.00"
"02:14:56","48.8","38.6","67.8","29.91","194","0","0","0.00","0.00"
"02:19:58","48.4","39","69.7","29.90","194","0","0","0.00","0.00"
"02:24:56","48","38.9","70.6","29.90","194","0","0","0.00","0.00"
"02:29:59","47.7","38.5","70.2","29.90","194","0","0","0.00","0.00"
"02:34:58","47.4","38.9","72","29.90","194","0","0","0.00","0.00"
"02:39:57","47.2","39.3","73.8","29.90","194","0","0","0.00","0.00"
"02:44:59","47.1","39.5","74.7","29.90","194","0","0","0.00","0.00"
"02:49:58","47.2","39.6","74.8","29.89","194","0","0","0.00","0.00"
"02:54:56","47.4","39.7","74.5","29.89","194","0","0","0.00","0.00"
"02:59:59","47.7","40.7","76.7","29.89","195","1.1","3.5","0.00","0.00"
"03:04:55","47.8","40.9","77","29.89","195","0","1.2","0.00","0.00"
"03:09:58","47.8","41.1","77.5","29.89","195","0.1","1.2","0.00","0.00"
"03:14:59","47.8","40.6","76","29.89","195","0.9","2.3","0.00","0.00"
"03:19:57","47.7","40.3","75.6","29.89","195","0.8","2.3","0.00","0.00"
"03:24:57","47.5","39.9","74.6","29.89","195","0.7","2.3","0.00","0.00"
"03:29:58","47.4","39.4","73.8","29.89","195","0.4","1.2","0.00","0.00"
"03:34:56","47.2","39.3","74","29.89","195","0","1.2","0.00","0.00"
"03:39:58","47.2","39.6","74.8","29.89","195","0.1","1.2","0.00","0.00"
"03:44:58","47","39.8","75.9","29.89","195","0","1.2","0.00","0.00"
"03:49:57","46.8","40.3","78","29.89","195","0.3","1.2","0.00","0.00"
"03:54:56","46.7","40.9","80","29.89","195","0","1.2","0.00","0.00"
"03:59:59","46.5","41","81","29.89","195","0","1.2","0.00","0.00"
"04:04:56","46.3","40.9","81.2","29.89","195","0","0","0.00","0.00"
"04:09:58","46.2","41","82.2","29.89","195","0","0","0.00","0.00"
"04:14:58","46","41.1","82.9","29.89","195","0","0","0.00","0.00"
"04:19:56","45.9","41","83","29.88","195","0","0","0.00","0.00"
"04:24:58","45.9","40.8","82.4","29.88","197","0.5","3.5","0.00","0.00"
"04:29:52","45.8","40.7","82.2","29.88","198","0.7","3.5","0.00","0.00"
"04:34:58","45.8","40.7","82.4","29.88","198","0.6","2.3","0.00","0.00"
"04:39:57","45.6","40.7","83","29.88","198","1.9","3.5","0.00","0.00"
"04:44:56","45.5","40.7","83.3","29.89","198","1.3","3.5","0.00","0.00"
"04:49:58","45.4","40.7","83.7","29.89","198","0","1.2","0.00","0.00"
"04:54:57","45.3","40.7","84","29.89","198","0","0","0.00","0.00"
"04:59:59","45.3","41.1","84.9","29.89","198","0.7","2.3","0.00","0.00"
"05:04:56","45.3","41.2","85.2","29.89","198","0.6","2.3","0.00","0.00"
"05:09:58","45.3","40.9","84.7","29.89","198","0","1.2","0.00","0.00"
"05:14:58","45.2","41.2","85.7","29.89","198","1","2.3","0.00","0.00"
"05:19:57","45.2","41.3","86","29.88","198","0.9","2.3","0.00","0.00"
"05:24:59","45.1","41.2","86","29.88","198","1.3","2.3","0.00","0.00"
"05:29:58","45","41","85.5","29.88","198","1.1","3.5","0.00","0.00"
"05:34:59","45","40.9","85.5","29.87","198","0.2","1.2","0.00","0.00"
"05:39:59","45","41.2","86.7","29.87","198","0","1.2","0.00","0.00"
"05:44:56","44.9","40.7","85.2","29.88","198","0","0","0.00","0.00"
"05:49:57","44.7","40.7","85.7","29.88","198","0","0","0.00","0.00"
"05:54:56","44.6","40.7","86","29.88","198","0","0","0.00","0.00"
"05:59:57","44.5","40.6","86","29.88","198","0.1","1.2","0.00","0.00"
"06:04:58","44.5","40.7","86.3","29.88","198","0.3","2.3","0.00","0.00"
"06:09:56","44.5","40.9","87","29.88","198","0","1.2","0.00","0.00"
"06:14:59","44.5","40.9","87","29.89","198","0","1.2","0.00","0.00"
"06:19:59","44.5","40.9","87","29.89","198","0","1.2","0.00","0.00"
"06:24:56","44.4","40.8","87","29.89","198","0","1.2","0.00","0.00"
"06:29:57","44.4","41","87.6","29.89","198","0","0","0.00","0.00"
"06:34:56","44.4","41.1","88","29.89","198","0","0","0.00","0.00"
"06:39:56","44.5","41.2","88","29.89","198","0","0","0.00","0.00"
"06:44:57","44.5","41.2","88","29.89","198","0","0","0.00","0.00"
"06:49:59","44.8","41.7","88.8","29.89","198","0","0","0.00","0.00"
"06:54:56","45.1","42.1","89","29.89","198","0","0","0.00","0.00"
"06:59:57","45.4","42.3","89","29.90","198","0","0","0.00","0.00"
"07:04:57","45.9","42.7","88.7","29.90","198","0","0","0.00","0.00"
"07:09:59","46.5","42.8","87.1","29.90","198","0","0","0.00","0.00"
"07:14:53","47.3","43.1","85.4","29.90","198","0","0","0.00","0.00"
"07:19:57","48.2","43.7","84.4","29.90","198","0.1","2.3","0.00","0.00"
"07:24:58","49","44","82.8","29.90","198","0.1","2.3","0.00","0.00"
"07:29:59","49.7","43.9","80.3","29.90","198","0.6","2.3","0.00","0.00"
"07:34:55","50.5","43.7","77.4","29.90","198","0.7","2.3","0.00","0.00"
"07:39:58","51.3","43.5","74.6","29.90","189","1.1","4","0.00","0.00"
"07:44:59","52.1","43.5","72.4","29.90","181","0.7","3.5","0.00","0.00"
"07:49:59","52.9","43","68.9","29.90","187","1.9","4","0.00","0.00"
"07:54:59","53.7","43.2","67.7","29.90","194","2","5","0.00","0.00"
"07:59:59","54.2","43.4","66.7","29.90","177","2.1","5","0.00","0.00"
"08:04:58","54.8","43.6","66","29.90","191","2.3","4.6","0.00","0.00"
"08:09:59","55.4","44","65.5","29.90","199","1.8","5","0.00","0.00"
"08:14:56","56.1","43.9","63.6","29.90","189","2.9","7","0.00","0.00"
"08:19:56","56.8","44.1","62.3","29.90","196","2.3","5","0.00","0.00"
"08:24:57","57.6","44.6","61.8","29.90","188","2.4","4.6","0.00","0.00"
"08:29:59","58.4","44.2","59.2","29.90","185","2.6","5","0.00","0.00"
"08:34:56","59.2","45.6","60.8","29.90","183","2.3","6","0.00","0.00"
"08:39:58","60","45.1","57.9","29.90","171","2.5","5.8","0.00","0.00"
"08:44:56","60.6","44.9","56","29.90","171","2.6","6","0.00","0.00"
"08:49:58","61.1","45.3","56.1","29.90","176","2.3","5","0.00","0.00"
"08:54:56","61.7","46.2","56.8","29.90","148","1.7","4","0.00","0.00"
"08:59:56","62.5","45.9","54.7","29.90","177","2.1","4","0.00","0.00"
"09:04:59","63","46.5","55","29.89","176","2.5","5","0.00","0.00"
"09:09:59","63.6","46.4","53.5","29.89","192","2.9","6","0.00","0.00"
"09:14:58","64.1","47","53.6","29.90","185","3.4","7","0.00","0.00"
"09:19:58","64.7","47.6","54","29.90","187","2.7","5","0.00","0.00"
"09:24:59","65.4","47.7","52.8","29.90","178","2.3","4","0.00","0.00"
"09:29:56","66.4","48.9","53.3","29.90","172","1.7","5","0.00","0.00"
"09:34:56","67.3","49.1","52.1","29.89","195","2.9","5","0.00","0.00"
"09:39:58","67.8","48.6","50.1","29.89","186","3","5","0.00","0.00"
"09:44:58","68","48.8","50.1","29.89","179","2.7","6","0.00","0.00"
"09:49:59","68.5","49.5","50.7","29.89","184","3.6","6","0.00","0.00"
"09:54:56","69","49.3","49.6","29.89","171","2.6","5","0.00","0.00"
"09:59:56","68.7","48.8","49.1","29.89","182","3","6","0.00","0.00"
"10:04:59","68.1","49.7","51.9","29.88","187","2.6","5","0.00","0.00"
"10:09:59","67.8","49.6","52.3","29.88","167","3","5","0.00","0.00"
"10:14:58","67.9","50.4","53.6","29.88","198","2.2","5","0.00","0.00"
"10:19:59","68.3","50.9","53.8","29.88","186","2.6","5","0.00","0.00"
"10:24:56","69","51.4","53.7","29.88","198","2.4","5","0.00","0.00"
"10:29:56","69.6","51.2","52.2","29.88","206","3.2","5","0.00","0.00"
"10:34:57","69.9","51.1","51.3","29.88","196","3","5","0.00","0.00"
"10:39:59","70.4","51.3","50.8","29.88","198","3.1","7","0.00","0.00"
"10:44:56","71.2","52.1","50.9","29.88","193","3","7","0.00","0.00"
"10:49:56","72.3","52.3","49.4","29.87","198","3.7","7","0.00","0.00"
"10:54:57","73.5","53.4","49.4","29.87","217","3","7","0.00","0.00"
"10:59:57","74.7","54.1","48.7","29.87","175","2.6","6","0.00","0.00"
"11:04:56","75.7","55","48.9","29.87","181","4.2","7","0.00","0.00"
"11:09:56","75.6","53.7","46.6","29.87","196","4.2","9","0.00","0.00"
"11:14:59","75.5","54.5","48.1","29.87","153","3.1","9.2","0.00","0.00"
"11:19:59","75.7","54.4","47.6","29.87","150","3.9","10","0.00","0.00"
"11:24:59","75.9","54.7","47.9","29.87","141","3.4","8","0.00","0.00"
"11:29:59","76.5","53.9","45.6","29.87","186","4.4","10.4","0.00","0.00"
"11:34:56","77.1","54.8","46.1","29.86","189","3.7","12","0.00","0.00"
"11:39:58","77.9","54.7","44.8","29.86","188","3.2","7","0.00","0.00"
"11:44:59","78.3","53.5","42.3","29.86","167","3.6","7","0.00","0.00"
"11:49:59","78.3","54","43.1","29.86","194","3.8","12","0.00","0.00"
"11:54:56","78.4","53.3","41.8","29.86","182","5.2","11.5","0.00","0.00"
"11:59:58","79","53.5","41.3","29.86","193","5.5","14","0.00","0.00"
"12:04:56","78.9","52","39.3","29.86","174","5.2","12","0.00","0.00"
"12:09:56","79.3","54.7","42.9","29.86","217","4.5","10","0.00","0.00"
"12:14:57","79.7","53.7","40.7","29.86","190","5","11.5","0.00","0.00"
"12:19:59","79.9","54.6","41.7","29.86","206","5.3","12","0.00","0.00"
"12:24:58","79.7","53.6","40.5","29.86","179","5.1","12","0.00","0.00"
"12:29:57","79.8","54.5","42","29.86","207","5.8","11.5","0.00","0.00"
"12:34:56","80","55.9","43.7","29.85","204","5.6","11.5","0.00","0.00"
"12:39:57","80.2","54.3","41","29.85","196","5.3","12","0.00","0.00"
"12:44:56","80.3","54.3","40.7","29.85","198","6.6","12","0.00","0.00"
"12:49:59","80.7","54.6","40.8","29.85","189","5","11.5","0.00","0.00"
"12:54:58","81.1","54.7","40.3","29.85","202","7.1","14","0.00","0.00"
"12:59:56","81.1","54.7","40.3","29.85","198","6.7","13.8","0.00","0.00"
"13:04:57","81.4","55.4","41","29.85","201","5.9","11.5","0.00","0.00"
"13:09:56","81.6","55","40.2","29.85","196","5.9","12","0.00","0.00"
"13:14:57","81.6","54.8","39.8","29.85","195","4.9","12","0.00","0.00"
"13:19:56","81.6","55.9","41.5","29.84","217","6.6","11.5","0.00","0.00"
"13:24:56","82.1","56.2","41.3","29.84","183","4","9","0.00","0.00"
"13:29:59","82.6","55.4","39.5","29.84","203","5.2","10.4","0.00","0.00"
"13:34:59","82.9","56.6","40.7","29.84","201","4.2","14","0.00","0.00"
"13:39:59","83.3","55","38","29.84","192","4.2","9.2","0.00","0.00"
"13:44:59","83.9","57.6","41","29.84","213","4.2","9","0.00","0.00"
"13:49:59","84.3","55.5","37.4","29.83","238","4.7","10.4","0.00","0.00"
"13:54:58","84.2","56.2","38.5","29.83","228","5.3","11.5","0.00","0.00"
"13:59:58","84.3","55.4","37.3","29.83","210","5.1","11","0.00","0.00"
"14:04:56","84.5","54.4","35.8","29.83","211","5.9","13","0.00","0.00"
"14:09:59","84.7","56","37.7","29.83","202","5","11.5","0.00","0.00"
"14:14:57","84.7","54.7","36","29.83","213","5.8","10.4","0.00","0.00"
"14:19:57","84.8","55.9","37.5","29.82","215","5.7","13","0.00","0.00"
"14:24:56","84.9","56.1","37.6","29.82","195","6","11.5","0.00","0.00"
"14:29:55","84.7","56","37.7","29.82","198","4.6","13","0.00","0.00"
"14:34:56","84.8","54.7","35.9","29.82","174","6.6","14","0.00","0.00"
"14:39:56","84.5","55.5","37.2","29.82","203","5.7","14","0.00","0.00"
"14:44:56","84.5","55","36.5","29.82","184","5.7","15","0.00","0.00"
"14:49:56","84.6","55.1","36.7","29.82","193","6","15","0.00","0.00"
"14:54:59","84.8","55.8","37.3","29.82","190","5.4","14","0.00","0.00"
"14:59:58","84.8","55.4","36.7","29.82","212","6.7","12.7","0.00","0.00"
"15:04:56","84.6","53.4","34.4","29.82","201","6.4","13","0.00","0.00"
"15:09:55","84.7","56","37.7","29.82","207","5.6","12","0.00","0.00"
"15:14:57","84.7","55","36.3","29.82","199","7.4","14","0.00","0.00"
"15:19:56","84.4","53.7","35","29.81","188","5.9","16.1","0.00","0.00"
"15:24:56","84.4","55.2","36.8","29.81","204","5.9","16","0.00","0.00"
"15:29:59","84.7","54.9","36.3","29.81","189","5.3","12","0.00","0.00"
"15:34:58","84.6","54.8","36.1","29.81","196","6.8","13","0.00","0.00"
"15:39:55","84.5","54.9","36.4","29.81","183","6.1","13","0.00","0.00"
"15:44:59","84.5","55","36.5","29.81","191","5.7","14","0.00","0.00"
"15:49:59","84.6","54.2","35.4","29.80","200","5.7","14","0.00","0.00"
"15:54:59","84.7","55.2","36.6","29.80","190","4.7","10","0.00","0.00"
"15:59:58","84.9","55.1","36.2","29.80","192","4.7","10.4","0.00","0.00"
"16:04:56","84.9","53.1","33.7","29.80","173","4.6","10","0.00","0.00"
"16:09:56","84.8","54.7","35.8","29.80","184","5.6","12","0.00","0.00"
"16:14:58","84.7","54.4","35.6","29.80","199","6","11.5","0.00","0.00"
"16:19:59","84.6","54.2","35.5","29.79","209","7.6","14","0.00","0.00"
"16:24:59","84.5","55.3","37","29.79","208","5.7","12","0.00","0.00"
"16:29:58","84.6","54.5","35.9","29.79","203","5.4","13","0.00","0.00"
"16:34:57","84.5","54","35.3","29.79","193","6.2","15","0.00","0.00"
"16:39:58","84.4","54.3","35.7","29.79","175","4.3","9.2","0.00","0.00"
"16:44:57","84.6","54.1","35.3","29.79","189","4.6","10.4","0.00","0.00"
"16:49:57","84.5","54.2","35.5","29.78","202","5","11","0.00","0.00"
"16:54:56","84.2","53.5","34.9","29.78","192","5.4","12","0.00","0.00"
"16:59:59","84.1","53.4","34.9","29.78","188","4.8","13","0.00","0.00"
"17:04:58","84.2","54.1","35.8","29.78","187","6.2","16.1","0.00","0.00"
"17:09:57","84","53.8","35.5","29.78","197","5","11.5","0.00","0.00"
"17:14:59","83.8","53.5","35.4","29.78","212","4.1","9.2","0.00","0.00"
"17:19:58","83.9","53.6","35.3","29.78","208","4.9","10.4","0.00","0.00"
"17:24:58","83.7","54","36.1","29.78","201","4.6","10.4","0.00","0.00"
"17:29:57","83.7","53.5","35.4","29.78","191","4.3","10","0.00","0.00"
"17:34:56","83.9","53.1","34.8","29.78","205","5.9","10.4","0.00","0.00"
"17:39:56","83.8","53.5","35.3","29.78","199","4.7","13","0.00","0.00"
"17:44:56","83.6","52.2","33.9","29.78","203","8","13","0.00","0.00"
"17:49:59","83.2","53.1","35.5","29.78","212","4.9","10.4","0.00","0.00"
"17:54:59","83","52","34.4","29.78","197","5.8","12","0.00","0.00"
"17:59:58","82.9","50.9","33.1","29.78","197","6.4","12","0.00","0.00"
"18:04:57","82.8","52.3","35","29.78","202","5.2","13","0.00","0.00"
"18:09:57","82.1","52","35.4","29.78","193","5.7","14","0.00","0.00"
"18:14:59","81.5","52.2","36.4","29.78","202","3.4","9","0.00","0.00"
"18:19:56","80.9","51.7","36.4","29.78","186","3.8","7","0.00","0.00"
"18:24:56","80.6","51.3","36.1","29.78","188","4.7","11","0.00","0.00"
"18:29:57","80.5","50.8","35.6","29.78","194","4.4","11","0.00","0.00"
"18:34:57","80.4","51.5","36.7","29.78","198","3.6","11.5","0.00","0.00"
"18:39:56","80.3","50.9","36","29.78","188","3.7","9","0.00","0.00"
"18:44:56","80.2","50.7","35.8","29.78","191","4.8","10.4","0.00","0.00"
"18:49:57","80.1","51","36.3","29.78","186","4.8","11.5","0.00","0.00"
"18:54:56","79.8","51.2","36.9","29.78","196","3.7","9","0.00","0.00"
"18:59:58","79.6","50.5","36.3","29.78","185","3.6","9.2","0.00","0.00"
"19:04:56","79.5","50.8","36.9","29.78","182","4.1","11.5","0.00","0.00"
"19:09:57","79.4","51.1","37.4","29.78","165","3.1","6","0.00","0.00"
"19:14:58","79.1","50.6","37","29.78","190","3.2","9","0.00","0.00"
"19:19:56","79","51.2","38","29.77","171","3.2","9.2","0.00","0.00"
"19:24:58","78.8","51.2","38.3","29.77","179","2.9","6","0.00","0.00"
"19:29:59","78.6","51.1","38.3","29.77","192","2.2","5","0.00","0.00"
"19:34:56","78.4","50.8","38.1","29.77","173","2.1","6","0.00","0.00"
"19:39:59","78.2","51.1","38.8","29.77","160","2.3","5","0.00","0.00"
"19:44:56","78.1","51.1","39","29.78","160","2.9","6","0.00","0.00"
"19:49:57","77.9","51.4","39.7","29.78","136","1.6","4","0.00","0.00"
"19:54:58","77.6","51","39.5","29.78","160","1.7","5","0.00","0.00"
"19:59:59","77.3","51.2","40.2","29.78","183","2.5","5","0.00","0.00"
"20:04:58","76.8","51.8","41.7","29.78","181","1.8","3.5","0.00","0.00"
"20:09:58","76.3","51.8","42.5","29.78","179","2.2","5","0.00","0.00"
"20:14:58","75.9","51.7","42.8","29.78","176","2.6","6","0.00","0.00"
"20:19:59","75.6","51.7","43.3","29.78","184","2.6","5","0.00","0.00"
"20:24:57","75.4","51.8","43.8","29.78","185","3.1","5","0.00","0.00"
"20:29:58","75.2","51.7","43.9","29.79","185","2.2","6","0.00","0.00"
"20:34:58","75","51.6","44","29.79","201","3","6","0.00","0.00"
"20:39:58","74.8","51.6","44.3","29.79","194","2","4","0.00","0.00"
"20:44:59","74.6","51.7","44.7","29.79","189","2","4","0.00","0.00"
"20:49:56","74.4","51.7","45","29.79","186","1.5","5","0.00","0.00"
"20:54:58","74.2","51.5","45","29.79","184","2.4","6","0.00","0.00"
"20:59:59","74.1","51.8","45.6","29.79","203","2.1","5","0.00","0.00"
"21:04:59","74","51.4","45.2","29.79","182","1.8","4","0.00","0.00"
"21:09:56","73.8","51.1","45","29.79","175","1.4","3.5","0.00","0.00"
"21:14:56","73.7","51","45","29.79","172","1.6","4","0.00","0.00"
"21:19:58","73.7","51.2","45.4","29.79","178","1.7","5","0.00","0.00"
"21:24:56","73.5","51","45.2","29.79","198","2","5","0.00","0.00"
"21:29:58","73.3","51.1","45.7","29.80","194","1.5","4","0.00","0.00"
"21:34:59","73.1","50.7","45.3","29.80","167","1.6","4","0.00","0.00"
"21:39:59","73","50.5","45.1","29.80","170","1.6","4","0.00","0.00"
"21:44:56","72.9","50.7","45.7","29.80","169","2.1","5","0.00","0.00"
"21:49:58","72.7","50.7","46","29.80","174","2.5","5","0.00","0.00"
"21:54:59","72.5","50.5","46","29.80","186","1.6","4.6","0.00","0.00"
"21:59:56","72.4","50.2","45.7","29.80","191","1.8","6","0.00","0.00"
"22:04:56","72.4","49.9","45.1","29.80","189","1.4","3.5","0.00","0.00"
"22:09:57","72.4","50.2","45.6","29.80","192","1.7","3.5","0.00","0.00"
"22:14:56","72.3","50.3","45.9","29.81","187","1.3","4","0.00","0.00"
"22:19:57","72.2","50.6","46.7","29.81","184","1.1","3.5","0.00","0.00"
"22:24:58","71.9","50.6","47","29.81","194","1.5","4","0.00","0.00"
"22:29:59","71.6","50.7","47.6","29.81","182","2.3","5","0.00","0.00"
"22:34:56","71.4","50.7","48","29.81","189","2","4","0.00","0.00"
"22:39:56","71.2","50.7","48.4","29.81","188","1.3","3.5","0.00","0.00"
"22:44:57","71","50.4","48.1","29.81","173","1.9","3.5","0.00","0.00"
"22:49:58","71","50.5","48.3","29.81","169","1.7","3.5","0.00","0.00"
"22:54:59","70.9","50.5","48.5","29.81","169","1","2.3","0.00","0.00"
"22:59:56","70.8","50.8","49.2","29.81","169","1.2","3.5","0.00","0.00"
"23:04:59","70.6","50.8","49.5","29.80","169","1.8","4","0.00","0.00"
"23:09:56","70.4","51","50.2","29.80","170","1.3","3.5","0.00","0.00"
"23:14:59","70.2","50.9","50.3","29.81","179","2","5","0.00","0.00"
"23:19:59","70.1","50.8","50.5","29.81","186","1.7","4","0.00","0.00"
"23:24:56","69.9","50.6","50.4","29.81","184","1.5","4","0.00","0.00"
"23:29:58","69.8","51","51.2","29.81","184","1.1","3.5","0.00","0.00"
"23:34:59","69.6","50.9","51.3","29.80","185","1.3","4","0.00","0.00"
"23:39:58","69.5","50.7","51.2","29.80","183","1.3","3.5","0.00","0.00"
"23:44:59","69.5","50.6","51","29.81","183","0.4","1.2","0.00","0.00"
"23:49:56","69.5","50.7","51.3","29.81","183","0.8","2.3","0.00","0.00"
"23:54:57","69.4","50.6","51.3","29.81","183","0.9","3.5","0.00","0.00"
"23:59:58","69.2","50.8","52","29.81","183","0.7","2.3","0.00","0.00"
